When you browse on this site, cookies collect data to enhance your experience and personalize the content and advertising you see.
Visit our Privacy Policy to learn more. By continuing to use the site, you agree to this use of cookies and data.
  • în România
  • Lista ţărilor
  • Pe 7 zile
  • Temperatura apei
  • Meteo pe hartă
  • Widget-uri
  • user-avatar
    Intrare

    Meteo pe oră la Kavasaki

    Astăzi, 24 Ianuarie, Vineri

    Timp Temperatura Precipitaţii Vânt Presiune Umiditate
    00:00 +9°C° 0 mm 1 m/s 759 mmHg 91%
    01:00 +9°C° 0 mm 1 m/s 759 mmHg 91%
    02:00 +9°C° 0 mm 1 m/s 759 mmHg 91%
    03:00 +7°C° 0 mm 2 m/s 759 mmHg 90%
    04:00 +7°C° 0 mm 2 m/s 760 mmHg 90%
    05:00 +8°C° 0 mm 1 m/s 760 mmHg 89%
    06:00 +8°C° 0 mm 1 m/s 760 mmHg 89%
    07:00 +9°C° 0 mm 1 m/s 761 mmHg 85%
    08:00 +10°C° 0 mm 1 m/s 761 mmHg 82%
    09:00 +11°C° 0 mm 1 m/s 761 mmHg 79%
    10:00 +12°C° 0 mm 2 m/s 761 mmHg 71%
    11:00 +13°C° 0 mm 2 m/s 761 mmHg 63%
    12:00 +14°C° 0 mm 3 m/s 761 mmHg 56%
    13:00 +14°C° 0 mm 3 m/s 761 mmHg 54%
    14:00 +14°C° 0 mm 3 m/s 761 mmHg 52%
    15:00 +14°C° 0 mm 4 m/s 761 mmHg 51%
    16:00 +13°C° 0 mm 4 m/s 762 mmHg 54%
    17:00 +11°C° 0 mm 4 m/s 762 mmHg 58%
    18:00 +10°C° 0 mm 3 m/s 763 mmHg 62%
    19:00 +9°C° 0 mm 3 m/s 763 mmHg 64%
    20:00 +8°C° 0 mm 3 m/s 764 mmHg 66%
    21:00 +8°C° 0 mm 3 m/s 764 mmHg 68%
    22:00 +7°C° 0 mm 3 m/s 764 mmHg 69%
    23:00 +5°C° 0 mm 3 m/s 765 mmHg 69%

    Mâine, 25 Ianuarie, Sâmbătă

    Timp Temperatura Precipitaţii Vânt Presiune Umiditate
    00:00 +5°C° 0 mm 3 m/s 765 mmHg 69%
    01:00 +4°C° 0 mm 3 m/s 765 mmHg 69%
    02:00 +5°C° 0 mm 2 m/s 765 mmHg 70%
    03:00 +4°C° 0 mm 2 m/s 765 mmHg 70%
    04:00 +4°C° 0 mm 2 m/s 765 mmHg 69%
    05:00 +4°C° 0 mm 2 m/s 765 mmHg 69%
    06:00 +4°C° 0 mm 2 m/s 765 mmHg 68%
    07:00 +4°C° 0 mm 2 m/s 765 mmHg 64%
    08:00 +5°C° 0 mm 2 m/s 766 mmHg 60%
    09:00 +5°C° 0 mm 2 m/s 766 mmHg 56%
    10:00 +7°C° 0 mm 2 m/s 766 mmHg 49%
    11:00 +10°C° 0 mm 1 m/s 765 mmHg 42%
    12:00 +11°C° 0 mm 1 m/s 765 mmHg 36%
    13:00 +12°C° 0 mm 1 m/s 764 mmHg 35%
    14:00 +12°C° 0 mm 1 m/s 764 mmHg 35%
    15:00 +12°C° 0 mm 1 m/s 764 mmHg 34%
    16:00 +11°C° 0 mm 1 m/s 764 mmHg 40%
    17:00 +10°C° 0 mm 1 m/s 764 mmHg 45%
    18:00 +8°C° 0 mm 1 m/s 765 mmHg 51%
    19:00 +8°C° 0 mm 1 m/s 765 mmHg 54%
    20:00 +8°C° 0 mm 1 m/s 765 mmHg 56%
    21:00 +7°C° 0 mm 1 m/s 765 mmHg 59%
    22:00 +7°C° 0 mm 1 m/s 764 mmHg 60%
    23:00 +7°C° 0 mm 1 m/s 764 mmHg 60%

    Poimâine, 26 Ianuarie, Duminică

    Timp Temperatura Precipitaţii Vânt Presiune Umiditate
    00:00 +7°C° 0 mm 1 m/s 764 mmHg 60%
    01:00 +7°C° 0 mm 1 m/s 764 mmHg 61%
    02:00 +7°C° 0 mm 1 m/s 764 mmHg 62%
    03:00 +7°C° 0 mm 1 m/s 763 mmHg 63%
    04:00 +7°C° 0 mm 1 m/s 763 mmHg 65%
    05:00 +7°C° 0 mm 1 m/s 763 mmHg 66%
    06:00 +7°C° 0 mm 1 m/s 763 mmHg 67%
    07:00 +8°C° 0 mm 1 m/s 763 mmHg 66%
    08:00 +8°C° 0 mm 1 m/s 764 mmHg 64%
    09:00 +9°C° 0 mm 1 m/s 764 mmHg 63%
    10:00 +10°C° 0 mm 1 m/s 763 mmHg 56%
    11:00 +11°C° 0 mm 1 m/s 763 mmHg 49%
    12:00 +13°C° 0 mm 1 m/s 763 mmHg 42%
    13:00 +13°C° 0 mm 1 m/s 763 mmHg 40%
    14:00 +13°C° 0 mm 1 m/s 762 mmHg 38%
    15:00 +13°C° 0 mm 1 m/s 762 mmHg 36%
    16:00 +12°C° 0 mm 1 m/s 763 mmHg 42%
    17:00 +11°C° 0 mm 1 m/s 763 mmHg 48%
    18:00 +9°C° 0 mm 1 m/s 763 mmHg 54%
    19:00 +9°C° 0 mm 1 m/s 763 mmHg 57%
    20:00 +8°C° 0 mm 1 m/s 764 mmHg 61%
    21:00 +7°C° 0 mm 1 m/s 764 mmHg 65%
    22:00 +6°C° 0 mm 2 m/s 764 mmHg 63%
    23:00 +6°C° 0 mm 2 m/s 764 mmHg 62%

    27 Ianuarie, Luni

    Timp Temperatura Precipitaţii Vânt Presiune Umiditate
    00:00 +6°C° 0 mm 2 m/s 764 mmHg 61%
    01:00 +6°C° 0 mm 2 m/s 764 mmHg 59%
    02:00 +6°C° 0 mm 2 m/s 763 mmHg 57%
    03:00 +6°C° 0 mm 2 m/s 763 mmHg 54%
    04:00 +8°C° 0 mm 1 m/s 763 mmHg 54%
    05:00 +8°C° 0 mm 1 m/s 763 mmHg 54%
    06:00 +8°C° 0 mm 1 m/s 762 mmHg 53%
    07:00 +8°C° 0 mm 1 m/s 762 mmHg 54%
    08:00 +9°C° 0 mm 1 m/s 762 mmHg 54%
    09:00 +9°C° 0 mm 1 m/s 762 mmHg 54%
    10:00 +8°C° 0.7 mm 0 m/s 761 mmHg 61%
    11:00 +8°C° 0.7 mm 0 m/s 760 mmHg 67%
    12:00 +7°C° 0.7 mm 0 m/s 759 mmHg 74%
    13:00 +7°C° 2.5 mm 0 m/s 759 mmHg 80%
    14:00 +8°C° 2.5 mm 1 m/s 758 mmHg 85%
    15:00 +8°C° 2.5 mm 1 m/s 757 mmHg 91%
    16:00 +8°C° 2.6 mm 1 m/s 757 mmHg 91%
    17:00 +8°C° 2.6 mm 1 m/s 756 mmHg 92%
    18:00 +7°C° 2.6 mm 2 m/s 756 mmHg 92%
    19:00 +7°C° 0.3 mm 2 m/s 755 mmHg 90%
    20:00 +8°C° 0.3 mm 1 m/s 754 mmHg 87%
    21:00 +8°C° 0.3 mm 1 m/s 754 mmHg 84%
    22:00 +8°C° 0.1 mm 1 m/s 753 mmHg 84%
    23:00 +8°C° 0.1 mm 1 m/s 753 mmHg 84%

    28 Ianuarie, Marţi

    Timp Temperatura Precipitaţii Vânt Presiune Umiditate
    00:00 +8°C° 0.1 mm 1 m/s 752 mmHg 84%
    01:00 +8°C° 0 mm 1 m/s 752 mmHg 82%
    02:00 +8°C° 0 mm 1 m/s 751 mmHg 80%
    03:00 +8°C° 0 mm 1 m/s 751 mmHg 78%
    04:00 +8°C° 0 mm 1 m/s 750 mmHg 77%
    05:00 +8°C° 0 mm 1 m/s 750 mmHg 76%
    06:00 +9°C° 0 mm 1 m/s 750 mmHg 76%
    07:00 +9°C° 0 mm 1 m/s 750 mmHg 75%
    08:00 +9°C° 0 mm 1 m/s 751 mmHg 75%
    09:00 +8°C° 0 mm 2 m/s 751 mmHg 74%
    10:00 +11°C° 0 mm 1 m/s 751 mmHg 70%
    11:00 +12°C° 0 mm 1 m/s 750 mmHg 65%
    12:00 +14°C° 0 mm 1 m/s 750 mmHg 61%
    13:00 +14°C° 0 mm 1 m/s 750 mmHg 62%
    14:00 +14°C° 0 mm 1 m/s 750 mmHg 62%
    15:00 +14°C° 0 mm 1 m/s 750 mmHg 63%
    16:00 +14°C° 0 mm 1 m/s 750 mmHg 67%
    17:00 +13°C° 0 mm 1 m/s 750 mmHg 71%
    18:00 +12°C° 0 mm 1 m/s 751 mmHg 74%
    19:00 +12°C° 0 mm 1 m/s 751 mmHg 77%
    20:00 +11°C° 0 mm 1 m/s 751 mmHg 79%
    21:00 +11°C° 0 mm 1 m/s 751 mmHg 81%
    22:00 +11°C° 0.4 mm 1 m/s 751 mmHg 82%
    23:00 +11°C° 0.4 mm 1 m/s 751 mmHg 83%

    29 Ianuarie, Miercuri

    Timp Temperatura Precipitaţii Vânt Presiune Umiditate
    00:00 +11°C° 0.4 mm 1 m/s 750 mmHg 84%
    01:00 +11°C° 0.2 mm 1 m/s 750 mmHg 85%
    02:00 +11°C° 0.2 mm 1 m/s 750 mmHg 85%
    03:00 +11°C° 0.2 mm 1 m/s 750 mmHg 86%
    04:00 +11°C° 0.6 mm 1 m/s 750 mmHg 87%
    05:00 +11°C° 0.6 mm 1 m/s 750 mmHg 88%
    06:00 +10°C° 0.6 mm 1 m/s 750 mmHg 89%
    07:00 +11°C° 0.1 mm 1 m/s 750 mmHg 87%
    08:00 +11°C° 0.1 mm 1 m/s 750 mmHg 84%
    09:00 +12°C° 0.1 mm 1 m/s 750 mmHg 82%
    10:00 +13°C° 0 mm 1 m/s 749 mmHg 76%
    11:00 +13°C° 0 mm 1 m/s 749 mmHg 70%
    12:00 +14°C° 0 mm 2 m/s 748 mmHg 64%
    13:00 +15°C° 0 mm 2 m/s 748 mmHg 62%
    14:00 +15°C° 0 mm 2 m/s 748 mmHg 60%
    15:00 +14°C° 0 mm 3 m/s 747 mmHg 58%
    16:00 +13°C° 0 mm 3 m/s 747 mmHg 61%
    17:00 +12°C° 0 mm 3 m/s 747 mmHg 65%
    18:00 +11°C° 0 mm 3 m/s 747 mmHg 68%
    19:00 +10°C° 0 mm 3 m/s 747 mmHg 70%
    20:00 +10°C° 0 mm 2 m/s 747 mmHg 73%
    21:00 +9°C° 0 mm 2 m/s 747 mmHg 75%
    22:00 +10°C° 0 mm 1 m/s 747 mmHg 77%
    23:00 +9°C° 0 mm 1 m/s 746 mmHg 78%
    Arată mai mult